IK3ZGB Weather Reports


Display with metric or nautical units.
time (UTC)temp
F
wind
direction
speed
MPH
gust
MPH
rain 1hr
in
rain 24hr
in
rain mn
in
humidity
%
barometer
mb
20260831125041 91 0.0 0.0 0.00 0.00 0.00 57 1009.9
20260831124041 91 0.0 0.0 0.00 0.00 0.00 57 1009.7
20260831123043 90 0.0 0.0 0.00 0.00 0.00 58 1009.7
20260831122042 90 0.0 0.0 0.00 0.00 0.00 58 1009.8
20260831121041 90 0.0 0.0 0.00 0.00 0.00 58 1009.8
20260831120042 90 0.0 0.0 0.00 0.00 0.00 59 1010.2
20260831115042 89 0.0 0.0 0.00 0.00 0.00 59 1010.4
20260831114040 90 0.0 0.0 0.00 0.00 0.00 57 1010.3
20260831113042 90 0.0 0.0 0.00 0.00 0.00 59 1010.6
20260831112041 90 0.0 0.0 0.00 0.00 0.00 57 1010.8
20260831111040 91 0.0 0.0 0.00 0.00 0.00 58 1010.6
20260831110042 90 0.0 0.0 0.00 0.00 0.00 57 1010.8
20260831105042 91 0.0 0.0 0.00 0.00 0.00 58 1010.8
20260831104040 90 0.0 0.0 0.00 0.00 0.00 57 1011.0
20260831103042 91 0.0 0.0 0.00 0.00 0.00 57 1010.8
20260831102041 92 0.0 0.0 0.00 0.00 0.00 58 1010.9
20260831101041 91 0.0 0.0 0.00 0.00 0.00 57 1011.1
20260831100042 91 0.0 0.0 0.00 0.00 0.00 57 1011.2
20260831095042 91 0.0 0.0 0.00 0.00 0.00 56 1011.1
20260831094041 91 0.0 0.0 0.00 0.00 0.00 57 1011.3
20260831093041 90 0.0 0.0 0.00 0.00 0.00 56 1011.5
20260831092042 91 0.0 0.0 0.00 0.00 0.00 58 1011.5
20260831091042 91 0.0 0.0 0.00 0.00 0.00 58 1011.5
20260831090042 90 0.0 0.0 0.00 0.00 0.00 58 1011.8
20260831085041 90 0.0 0.0 0.00 0.00 0.00 57 1011.4
20260831084041 90 0.0 0.0 0.00 0.00 0.00 58 1011.7
20260831083042 91 0.0 0.0 0.00 0.00 0.00 58 1011.6
20260831082042 90 0.0 0.0 0.00 0.00 0.00 59 1011.9
20260831081041 89 0.0 0.0 0.00 0.00 0.00 57 1011.7
20260831080041 89 0.0 0.0 0.00 0.00 0.00 57 1012.0
20260831075042 87 0.0 0.0 0.00 0.00 0.00 57 1011.8
20260831074041 88 0.0 0.0 0.00 0.00 0.00 59 1011.6
20260831073042 88 0.0 0.0 0.00 0.00 0.00 60 1011.4
20260831072042 87 0.0 0.0 0.00 0.00 0.00 60 1011.6
20260831071042 86 0.0 0.0 0.00 0.00 0.00 61 1011.7
20260831070041 86 0.0 0.0 0.00 0.00 0.00 62 1011.6
20260831065043 85 0.0 0.0 0.00 0.00 0.00 61 1011.8
20260831064041 84 0.0 0.0 0.00 0.00 0.00 61 1012.0
20260831063042 83 0.0 0.0 0.00 0.00 0.00 64 1012.4
20260831062042 82 0.0 0.0 0.00 0.00 0.00 64 1012.3
20260831061042 81 0.0 0.0 0.00 0.00 0.00 66 1012.2
20260831060042 81 0.0 0.0 0.00 0.00 0.00 66 1012.3
20260831055041 86 0.0 0.0 0.00 0.00 0.00 68 1012.4
20260831054040 83 0.0 0.0 0.00 0.00 0.00 72 1012.6
20260831053041 75 0.0 0.0 0.00 0.00 0.00 74 1012.4
20260831052041 73 0.0 0.0 0.00 0.00 0.00 74 1012.2
20260831051041 72 0.0 0.0 0.00 0.00 0.00 74 1012.3
20260831050041 72 0.0 0.0 0.00 0.00 0.00 75 1012.2
20260831045042 72 0.0 0.0 0.00 0.00 0.00 75 1012.2
20260831044041 72 0.0 0.0 0.00 0.00 0.00 75 1012.1
20260831043041 72 0.0 0.0 0.00 0.00 0.00 74 1012.2
20260831042043 72 0.0 0.0 0.00 0.00 0.00 74 1011.6
20260831041042 72 0.0 0.0 0.00 0.00 0.00 74 1012.0
20260831040041 72 0.0 0.0 0.00 0.00 0.00 74 1012.1
20260831035041 72 0.0 0.0 0.00 0.00 0.00 74 1011.9
20260831034042 72 0.0 0.0 0.00 0.00 0.00 75 1012.2
20260831033042 72 0.0 0.0 0.00 0.00 0.00 75 1012.2
20260831032043 72 0.0 0.0 0.00 0.00 0.00 75 1012.5
20260831031041 72 0.0 0.0 0.00 0.00 0.00 75 1012.5
20260831030041 72 0.0 0.0 0.00 0.00 0.00 74 1012.5
20260831025042 72 0.0 0.0 0.00 0.00 0.00 74 1012.5
20260831024041 72 0.0 0.0 0.00 0.00 0.00 74 1012.3
20260831023042 72 0.0 0.0 0.00 0.00 0.00 74 1012.0
20260831022041 72 0.0 0.0 0.00 0.00 0.00 73 1012.0
20260831021041 73 0.0 0.0 0.00 0.00 0.00 73 1012.3
20260831020041 73 0.0 0.0 0.00 0.00 0.00 73 1012.2
20260831015042 73 0.0 0.0 0.00 0.00 0.00 73 1012.3
20260831014042 73 0.0 0.0 0.00 0.00 0.00 74 1012.0
20260831013041 73 0.0 0.0 0.00 0.00 0.00 73 1012.2
20260831012042 73 0.0 0.0 0.00 0.00 0.00 73 1012.2
20260831011040 74 0.0 0.0 0.00 0.00 0.00 72 1012.1
20260831010041 74 0.0 0.0 0.00 0.00 0.00 71 1012.2
20260831005041 75 0.0 0.0 0.00 0.00 0.00 71 1012.1
20260831004041 76 0.0 0.0 0.00 0.00 0.00 71 1012.2
20260831003041 75 0.0 0.0 0.00 0.00 0.00 71 1012.0
20260831002042 76 0.0 0.0 0.00 0.00 0.00 69 1012.1
20260831001042 76 0.0 0.0 0.00 0.00 0.00 68 1012.1
20260831000040 76 0.0 0.0 0.00 0.00 0.00 68 1012.2
20260830235042 76 0.0 0.0 0.00 0.00 0.00 68 1012.0
20260830234041 77 0.0 0.0 0.00 0.00 0.00 67 1012.1
20260830233041 77 0.0 0.0 0.00 0.00 0.00 67 1012.1
20260830232042 77 0.0 0.0 0.00 0.00 0.00 66 1012.1
20260830231041 77 0.0 0.0 0.00 0.00 0.00 67 1012.1
20260830230042 77 0.0 0.0 0.00 0.00 0.00 67 1012.1
20260830225041 77 0.0 0.0 0.00 0.00 0.00 68 1011.9
20260830224040 77 0.0 0.0 0.00 0.00 0.00 67 1012.3
20260830223042 77 0.0 0.0 0.00 0.00 0.00 67 1011.9
20260830222041 78 0.0 0.0 0.00 0.00 0.00 67 1012.3
20260830221041 78 0.0 0.0 0.00 0.00 0.00 67 1012.3
20260830220041 78 0.0 0.0 0.00 0.00 0.00 67 1012.0
20260830215041 78 0.0 0.0 0.00 0.00 0.00 67 1012.2
20260830214040 78 0.0 0.0 0.00 0.00 0.00 67 1011.9
20260830213041 78 0.0 0.0 0.00 0.00 0.00 67 1012.0
20260830212041 78 0.0 0.0 0.00 0.00 0.00 66 1011.8
20260830211040 78 0.0 0.0 0.00 0.00 0.00 66 1011.9
20260830210041 79 0.0 0.0 0.00 0.00 0.00 66 1011.9
20260830205041 78 0.0 0.0 0.00 0.00 0.00 66 1011.7
20260830204042 79 0.0 0.0 0.00 0.00 0.00 66 1011.5
20260830203042 79 0.0 0.0 0.00 0.00 0.00 65 1011.5
20260830202042 80 0.0 0.0 0.00 0.00 0.00 65 1011.4
20260830201041 80 0.0 0.0 0.00 0.00 0.00 65 1011.8
20260830200042 80 0.0 0.0 0.00 0.00 0.00 65 1011.3
20260830195041 80 0.0 0.0 0.00 0.00 0.00 64 1011.1
20260830194042 80 0.0 0.0 0.00 0.00 0.00 64 1011.1
20260830193041 81 0.0 0.0 0.00 0.00 0.00 63 1011.2
20260830192042 81 0.0 0.0 0.00 0.00 0.00 63 1011.2
20260830191041 81 0.0 0.0 0.00 0.00 0.00 63 1011.1
20260830190041 82 0.0 0.0 0.00 0.00 0.00 63 1011.1
20260830185042 81 0.0 0.0 0.00 0.00 0.00 63 1011.0
20260830184041 82 0.0 0.0 0.00 0.00 0.00 62 1010.9
20260830183042 82 0.0 0.0 0.00 0.00 0.00 62 1010.6
20260830182041 83 0.0 0.0 0.00 0.00 0.00 63 1010.3
20260830181041 83 0.0 0.0 0.00 0.00 0.00 62 1010.1
20260830180041 84 0.0 0.0 0.00 0.00 0.00 61 1009.6
20260830175042 85 0.0 0.0 0.00 0.00 0.00 60 1009.7
20260830174040 85 0.0 0.0 0.00 0.00 0.00 59 1009.5
20260830173041 86 0.0 0.0 0.00 0.00 0.00 59 1009.6
20260830172042 86 0.0 0.0 0.00 0.00 0.00 58 1009.5
20260830171042 86 0.0 0.0 0.00 0.00 0.00 57 1009.4
20260830170041 87 0.0 0.0 0.00 0.00 0.00 57 1009.7
20260830165042 87 0.0 0.0 0.00 0.00 0.00 54 1009.7
20260830164041 88 0.0 0.0 0.00 0.00 0.00 54 1009.6
20260830163042 88 0.0 0.0 0.00 0.00 0.00 54 1009.9
20260830162042 88 0.0 0.0 0.00 0.00 0.00 54 1009.9
20260830161041 88 0.0 0.0 0.00 0.00 0.00 54 1009.9
20260830160042 88 0.0 0.0 0.00 0.00 0.00 54 1010.1
20260830155042 88 0.0 0.0 0.00 0.00 0.00 54 1010.0
20260830154041 88 0.0 0.0 0.00 0.00 0.00 54 1010.0
20260830153041 88 0.0 0.0 0.00 0.00 0.00 54 1010.0
20260830152042 88 0.0 0.0 0.00 0.00 0.00 54 1009.8
20260830151040 89 0.0 0.0 0.00 0.00 0.00 55 1010.0
20260830150042 89 0.0 0.0 0.00 0.00 0.00 55 1010.0
20260830145041 89 0.0 0.0 0.00 0.00 0.00 54 1009.9
20260830144041 89 0.0 0.0 0.00 0.00 0.00 55 1010.2
20260830143042 88 0.0 0.0 0.00 0.00 0.00 54 1010.2
20260830142041 89 0.0 0.0 0.00 0.00 0.00 55 1010.5
20260830141040 89 0.0 0.0 0.00 0.00 0.00 55 1010.2
20260830140042 89 0.0 0.0 0.00 0.00 0.00 55 1010.2
20260830135043 89 0.0 0.0 0.00 0.00 0.00 54 1010.6
20260830134041 89 0.0 0.0 0.00 0.00 0.00 56 1010.3
20260830133042 89 0.0 0.0 0.00 0.00 0.00 56 1010.6
20260830132041 88 0.0 0.0 0.00 0.00 0.00 56 1010.5
20260830131041 89 0.0 0.0 0.00 0.00 0.00 57 1010.6
20260830130041 89 0.0 0.0 0.00 0.00 0.00 56 1010.6